This demonstration page uses our WeatherBlox Daily Observations layout. Learn more.

Left ArrowRight Arrow

53.62937, 11.41316

Hourly Observations for May 10, 2019

Temp ( °F °C ) Dew Point ( °F °C ) Humidity (%) Winds ( mph kmh ) Pressure ( in mb ) Visibility ( mi km ) Precip ( " mm )
6:20 am 06:20 Mostly Sunny 48 9 46 8 94 94 VRB 2 4 29.59 1002 7 11 N/A
6:50 am 06:50 Mostly Sunny 48 9 46 8 94 94 WSW 2 4 29.62 1003 7 11 N/A
7:20 am 07:20 Mostly Sunny 52 11 48 9 88 88 WSW 6 9 29.62 1003 7 11 N/A
7:50 am 07:50 Mostly Sunny 52 11 48 9 88 88 W 5 7 29.62 1003 7 11 N/A
8:20 am 08:20 Mostly Cloudy 52 11 48 9 88 88 W 5 7 29.62 1003 30 48 N/A
8:50 am 08:50 Mostly Cloudy 52 11 48 9 88 88 W 5 7 29.65 1004 6 9 N/A
9:20 am 09:20 Mostly Cloudy 52 11 50 10 94 94 W 5 7 29.65 1004 5 8 N/A
9:50 am 09:50 Mostly Cloudy 52 11 50 10 94 94 W 6 9 29.65 1004 4 6 N/A
10:20 am 10:20 Mostly Cloudy 52 11 48 9 88 88 WNW 3 6 29.65 1004 4 6 N/A
10:50 am 10:50 Mostly Cloudy 52 11 48 9 88 88 W 5 7 29.68 1005 4 6 N/A
11:20 am 11:20 Mostly Cloudy 52 11 48 9 88 88 W 5 7 29.68 1005 5 8 N/A
11:50 am 11:50 Partly Cloudy 52 11 48 9 88 88 W 5 7 29.71 1006 30 48 N/A
12:20 pm 12:20 Mostly Cloudy 54 12 48 9 82 82 WSW 5 7 29.71 1006 30 48 N/A
12:50 pm 12:50 Mostly Cloudy 54 12 48 9 82 82 W 6 9 29.71 1006 30 48 N/A
1:20 pm 13:20 Mostly Cloudy 52 11 46 8 82 82 W 9 15 29.71 1006 30 48 N/A
1:50 pm 13:50 Mostly Cloudy 52 11 46 8 82 82 W 10 17 29.74 1007 30 48 N/A
2:20 pm 14:20 Mostly Cloudy 52 11 45 7 77 77 W 10 17 29.74 1007 30 48 N/A
2:50 pm 14:50 Mostly Cloudy 54 12 45 7 72 72 W 9 15 29.74 1007 30 48 N/A
3:20 pm 15:20 Mostly Cloudy 52 11 43 6 72 72 W 8 13 29.77 1008 30 48 N/A
3:50 pm 15:50 Mostly Cloudy 52 11 45 7 77 77 W 9 15 29.77 1008 30 48 N/A
4:20 pm 16:20 Mostly Cloudy 52 11 43 6 72 72 W 8 13 29.80 1009 30 48 N/A
4:50 pm 16:50 Partly Cloudy 54 12 43 6 67 67 W 9 15 29.80 1009 30 48 N/A
5:20 pm 17:20 Mostly Sunny 54 12 41 5 63 63 W 12 19 29.80 1009 30 48 N/A
5:50 pm 17:50 Mostly Cloudy 52 11 41 5 67 67 W 8 13 29.83 1010 30 48 N/A
6:20 pm 18:20 Partly Cloudy 54 12 41 5 63 63 W 10 17 29.83 1010 30 48 N/A
6:50 pm 18:50 Partly Cloudy 54 12 39 4 58 58 W 7 11 29.83 1010 30 48 N/A
7:20 pm 19:20 Mostly Sunny 52 11 37 3 58 58 W 9 15 29.83 1010 30 48 N/A
7:50 pm 19:50 Mostly Sunny 52 11 37 3 58 58 W 7 11 29.86 1011 30 48 N/A
8:20 pm 20:20 Mostly Sunny 52 11 37 3 58 58 W 6 9 29.86 1011 30 48 N/A
8:50 pm 20:50 Mostly Sunny 50 10 39 4 67 67 W 5 7 29.86 1011 7 11 N/A

Powered by AerisWeather